Regional Weather Roundup
Issued by NWS

Home | Current Version | Previous Version | Graphics & Text | Print | Product List | Glossary On
Versions: 1 2 3 4 5 6 7 8 9 10 11 12 13 14 15 16 17 18 19 20 21 22 23 24 25 26 27 28 29 30 31 32 33 34 35 36 37 38 39 40 41 42 43 44 45 46 47 48 49 50
136
ASUS43 KTOP 270008
RWRKS

WEATHER ROUNDUP FOR KANSAS
NATIONAL WEATHER SERVICE GOODLAND KS
700 PM CDT FRI MAY 26 2017

NOTE:  "FAIR" INDICATES FEW OR NO CLOUDS BELOW 12,000 FEET WITH NO
SIGNIFICANT WEATHER AND/OR OBSTRUCTIONS TO VISIBILITY.

KSZ001>006-013>018-027>032-041>047-270100-
NORTHWEST KANSAS

CITY           SKY/WX    TMP DP  RH WIND       PRES   REMARKS
GOODLAND       SUNNY     71  52  50 SE13      29.84F
6HR MIN TEMP:  65; 6HR MAX TEMP:  74;

HAYS           SUNNY     78  57  48 E10       29.83S
HILL CITY      SUNNY     78  52  40 SE10      29.84F
6HR MIN TEMP:  73; 6HR MAX TEMP:  79;

RUSSELL        SUNNY     77  58  51 E7        29.81S
6HR MIN TEMP:  74; 6HR MAX TEMP:  80;

$$

KSZ061>065-074>080-084>089-270100-
SOUTHWEST KANSAS

CITY           SKY/WX    TMP DP  RH WIND       PRES   REMARKS
DODGE CITY     SUNNY     79  56  45 E9        29.84F
6HR MIN TEMP:  77; 6HR MAX TEMP:  81;

ELKHART          N/A     80  48  32 MISG        N/A
GARDEN CITY    SUNNY     79  53  40 SE13      29.83F
6HR MIN TEMP:  75; 6HR MAX TEMP:  81;

GREAT BEND     SUNNY     80  57  45 E8        29.82S
LIBERAL        SUNNY     82  54  37 SE13      29.83F
PRATT          SUNNY     79  55  43 E7        29.82S
6HR MIN TEMP:  76; 6HR MAX TEMP:  80;

$$

KSZ066>073-081>083-090>101-270100-
SOUTHEAST KANSAS

CITY           SKY/WX    TMP DP  RH WIND       PRES   REMARKS
CHANUTE        MOSUNNY   85  64  49 NE8       29.77S
6HR MIN TEMP:  82; 6HR MAX TEMP:  87;

COFFEYVILLE    PTSUNNY   85  68  56 E6        29.75S
6HR MIN TEMP:  82; 6HR MAX TEMP:  89;

HUTCHINSON     SUNNY     82  60  47 NE8       29.79F
6HR MIN TEMP:  81; 6HR MAX TEMP:  85;

MEDICINE LODGE   N/A     84  59  42 NE6       29.78S
NEWTON         PTSUNNY   81  63  54 NE8       29.80F
PARSONS        MOSUNNY   83  66  56 CALM      29.78R
6HR MIN TEMP:  82; 6HR MAX TEMP:  87;

WICHITA INTL   MOSUNNY   84  61  45 NE10      29.77F
6HR MIN TEMP:  82; 6HR MAX TEMP:  87;

WICHITA JABRA  SUNNY     83  62  49 NE8       29.78F
6HR MIN TEMP:  83; 6HR MAX TEMP:  86;

WICHITA MCCONL SUNNY     85  60  43 NE9       29.78S
WINFIELD       SUNNY     85  60  42 NE8       29.77F
6HR MIN TEMP:  83; 6HR MAX TEMP:  87;

$$

KSZ007>012-019>026-033>040-048>060-102>105-270100-
NORTHEAST KANSAS

CITY           SKY/WX    TMP DP  RH WIND       PRES   REMARKS
CONCORDIA      SUNNY     78  56  46 NE6       29.81F
6HR MIN TEMP:  76; 6HR MAX TEMP:  81;

EMPORIA        SUNNY     83  63  50 N5        29.78S
6HR MIN TEMP:  80; 6HR MAX TEMP:  84;

LAWRENCE       SUNNY     84  63  49 NE5       29.77R
6HR MIN TEMP:  81; 6HR MAX TEMP:  86;

MANHATTAN      SUNNY     83  60  45 N5        29.78S
6HR MIN TEMP:  79; 6HR MAX TEMP:  85;

MARYSVILLE     SUNNY     81  55  41 N7        29.80F
OLATHE IND     SUNNY     82  63  52 N5        29.79R
6HR MIN TEMP:  78; 6HR MAX TEMP:  84;

OLATHE EXE     PTSUNNY   82  63  52 E5        29.78R
6HR MIN TEMP:  77; 6HR MAX TEMP:  84;

SALINA         SUNNY     83  59  44 N9        29.79F
6HR MIN TEMP:  80; 6HR MAX TEMP:  85;

TOPEKA BILLARD SUNNY     85  63  47 NE3       29.77S
6HR MIN TEMP:  80; 6HR MAX TEMP:  86;

TOPEKA FORBES  SUNNY     84  63  49 N5        29.78S
6HR MIN TEMP:  81; 6HR MAX TEMP:  87;

$$




USA.gov is the U.S. government's official web portal to all federal, state and local government web resources and services.